This is the latest recevied weather packets stored in our database for station/object YC2UTR-2. If no packets are shown the sender has not sent any weather packets the latest 10 day(s).
| Time | Temp. | Humidity | Pressure | Rain* | Wind** | Luminosity | Snow |
|---|---|---|---|---|---|---|---|
| 1788000499 | 27.78° C | 64% | 1015.1 hPa | - | - | - | - |
| 1788000199 | 27.22° C | 64% | 1015 hPa | - | - | - | - |
| 1787999899 | 27.78° C | 64% | 1015 hPa | - | - | - | - |
| 1787999599 | 27.78° C | 62% | 1014.9 hPa | - | - | - | - |
| 1787999299 | 27.78° C | 62% | 1014.8 hPa | - | - | - | - |
| 1787998999 | 27.78° C | 61% | 1014.7 hPa | - | - | - | - |
| 1787998699 | 28.33° C | 60% | 1014.8 hPa | - | - | - | - |
| 1787998399 | 28.33° C | 59% | 1014.6 hPa | - | - | - | - |
| 1787998099 | 28.33° C | 59% | 1014.6 hPa | - | - | - | - |
| 1787997799 | 28.33° C | 57% | 1014.5 hPa | - | - | - | - |
| 1787997499 | 28.33° C | 58% | 1014.5 hPa | - | - | - | - |
| 1787997199 | 28.89° C | 56% | 1014.5 hPa | - | - | - | - |
| 1787996899 | 28.89° C | 56% | 1014.5 hPa | - | - | - | - |
| 1787996599 | 28.89° C | 55% | 1014.5 hPa | - | - | - | - |
| 1787996299 | 28.89° C | 54% | 1014.4 hPa | - | - | - | - |
| 1787995999 | 28.89° C | 55% | 1014.3 hPa | - | - | - | - |
| 1787995699 | 29.44° C | 56% | 1014.4 hPa | - | - | - | - |
| 1787995399 | 28.89° C | 55% | 1014.3 hPa | - | - | - | - |
| 1787995099 | 29.44° C | 55% | 1014.2 hPa | - | - | - | - |
| 1787994799 | 29.44° C | 55% | 1014.2 hPa | - | - | - | - |
| 1787994499 | 30° C | 55% | 1014.1 hPa | - | - | - | - |
| 1787994199 | 30° C | 54% | 1014.1 hPa | - | - | - | - |
| 1787993899 | 30° C | 54% | 1014 hPa | - | - | - | - |
| 1787993599 | 30° C | 54% | 1014 hPa | - | - | - | - |
| 1787993299 | 30° C | 53% | 1014 hPa | - | - | - | - |
* Rain since midnight (hover to see other rain measurements)
** Current wind speed in m/s (hover to see current wind gust speed)